Time,TemperatureF,DewpointF,PressureIn,WindDirection,WindDirectionDegrees,WindSpeedMPH,WindSpeedGustMPH,Humidity,HourlyPrecipIn,Conditions,Clouds,dailyrainin,SolarRadiationWatts/m^2,SoftwareType,DateUTC
2013-03-03 00:02:00,23.2,32.2,29.93,NW,307,0.0,5.0,23,0.00,,,0.01,0.0,meteohub,2013-03-03 05:02:00,
2013-03-03 00:07:00,23.2,32.2,29.93,WNW,297,1.0,7.0,23,0.00,,,0.00,0.0,meteohub,2013-03-03 05:07:00,
2013-03-03 00:12:00,23.0,32.2,29.93,WNW,300,0.0,7.0,23,0.00,,,0.00,0.0,meteohub,2013-03-03 05:12:00,
2013-03-03 00:17:00,23.2,32.2,29.93,NNW,327,3.0,7.0,23,0.00,,,0.00,0.0,meteohub,2013-03-03 05:17:00,
2013-03-03 00:22:00,23.2,32.2,29.93,West,280,5.0,5.0,23,0.00,,,0.00,0.0,meteohub,2013-03-03 05:22:00,
2013-03-03 00:27:00,23.2,32.2,29.93,NW,325,1.0,5.0,23,0.00,,,0.00,0.0,meteohub,2013-03-03 05:27:00,
2013-03-03 00:32:00,23.2,32.2,29.93,WNW,288,4.0,5.0,23,0.00,,,0.00,0.0,meteohub,2013-03-03 05:32:00,
2013-03-03 00:37:00,23.2,32.2,29.93,NW,308,1.0,6.0,23,0.00,,,0.00,0.0,meteohub,2013-03-03 05:37:00,
2013-03-03 00:42:00,23.2,32.2,29.93,WNW,290,2.0,6.0,23,0.00,,,0.00,0.0,meteohub,2013-03-03 05:42:00,
2013-03-03 00:47:00,23.2,32.2,29.92,NW,317,3.0,6.0,23,0.00,,,0.00,0.0,meteohub,2013-03-03 05:47:00,
2013-03-03 00:52:00,23.2,32.2,29.93,NW,313,5.0,7.0,23,0.00,,,0.00,0.0,meteohub,2013-03-03 05:52:00,
2013-03-03 00:57:00,23.2,32.2,29.92,WNW,299,2.0,7.0,23,0.00,,,0.00,0.0,meteohub,2013-03-03 05:57:00,
2013-03-03 01:02:00,23.2,32.2,29.93,WNW,299,4.0,7.0,23,0.00,,,0.00,0.0,meteohub,2013-03-03 06:02:00,
2013-03-03 01:07:00,23.2,32.2,29.93,NW,310,3.0,7.0,23,0.00,,,0.00,0.0,meteohub,2013-03-03 06:07:00,
2013-03-03 01:12:00,23.2,32.2,29.92,WNW,282,2.0,7.0,23,0.00,,,0.00,0.0,meteohub,2013-03-03 06:12:00,
2013-03-03 01:17:00,23.2,32.2,29.93,NW,306,4.0,10.0,23,0.00,,,0.00,0.0,meteohub,2013-03-03 06:17:00,
2013-03-03 01:22:00,23.2,32.2,29.93,West,277,6.0,10.0,23,0.00,,,0.00,0.0,meteohub,2013-03-03 06:22:00,
2013-03-03 01:27:00,23.0,32.2,29.93,West,269,5.0,10.0,23,0.00,,,0.00,0.0,meteohub,2013-03-03 06:27:00,
2013-03-03 01:32:00,23.0,32.2,29.93,West,277,2.0,7.0,23,0.00,,,0.00,0.0,meteohub,2013-03-03 06:32:00,
2013-03-03 01:37:00,22.8,32.2,29.93,NW,323,4.0,7.0,23,0.00,,,0.00,0.0,meteohub,2013-03-03 06:37:00,
2013-03-03 01:42:00,22.8,32.2,29.93,NW,309,3.0,9.0,23,0.00,,,0.00,0.0,meteohub,2013-03-03 06:42:00,
2013-03-03 01:47:00,22.8,32.2,29.93,NW,325,5.0,9.0,23,0.00,,,0.00,0.0,meteohub,2013-03-03 06:47:00,
2013-03-03 01:52:00,22.8,32.2,29.93,NW,316,2.0,9.0,23,0.00,,,0.00,0.0,meteohub,2013-03-03 06:52:00,
2013-03-03 01:57:00,22.8,32.2,29.93,WNW,300,6.0,8.0,23,0.00,,,0.00,0.0,meteohub,2013-03-03 06:57:00,
2013-03-03 02:02:00,22.6,32.2,29.93,WNW,288,1.0,8.0,23,0.00,,,0.00,0.0,meteohub,2013-03-03 07:02:00,
2013-03-03 02:07:00,22.6,32.2,29.93,NNW,338,4.0,8.0,23,0.00,,,0.00,0.0,meteohub,2013-03-03 07:07:00,
2013-03-03 02:12:00,22.5,32.2,29.93,NNW,330,2.0,7.0,23,0.00,,,0.00,0.0,meteohub,2013-03-03 07:12:00,
2013-03-03 02:17:00,22.5,32.2,29.93,NW,305,5.0,7.0,23,0.00,,,0.00,0.0,meteohub,2013-03-03 07:17:00,
2013-03-03 02:22:00,22.5,32.2,29.93,WNW,301,5.0,7.0,23,0.00,,,0.00,0.0,meteohub,2013-03-03 07:22:00,
2013-03-03 02:27:00,22.5,32.2,29.93,WNW,292,3.0,7.0,23,0.00,,,0.00,0.0,meteohub,2013-03-03 07:27:00,
2013-03-03 02:32:00,22.3,32.2,29.93,NNW,343,2.0,7.0,23,0.00,,,0.00,0.0,meteohub,2013-03-03 07:32:00,
2013-03-03 02:42:00,21.9,32.2,29.92,NW,308,2.0,6.0,23,0.00,,,0.00,0.0,meteohub,2013-03-03 07:42:00,
2013-03-03 02:47:00,21.9,32.2,29.92,NW,309,0.0,5.0,23,0.00,,,0.00,0.0,meteohub,2013-03-03 07:47:00,
2013-03-03 02:52:00,21.7,32.2,29.92,West,279,2.0,5.0,23,0.00,,,0.00,0.0,meteohub,2013-03-03 07:52:00,
2013-03-03 02:57:00,21.7,32.2,29.92,NNW,327,0.0,6.0,23,0.00,,,0.00,0.0,meteohub,2013-03-03 07:57:00,
2013-03-03 03:02:00,21.7,32.2,29.92,WNW,293,1.0,6.0,23,0.00,,,0.00,0.0,meteohub,2013-03-03 08:02:00,
2013-03-03 03:07:00,21.7,32.2,29.92,NNW,335,5.0,5.0,23,0.00,,,0.00,0.0,meteohub,2013-03-03 08:07:00,
2013-03-03 03:12:00,21.6,32.2,29.92,NW,304,1.0,6.0,23,0.00,,,0.00,0.0,meteohub,2013-03-03 08:12:00,
2013-03-03 03:17:00,21.4,32.2,29.92,WNW,282,0.0,6.0,23,0.00,,,0.00,0.0,meteohub,2013-03-03 08:17:00,
2013-03-03 03:22:00,21.4,32.2,29.92,WNW,282,1.0,6.0,23,0.00,,,0.00,0.0,meteohub,2013-03-03 08:22:00,
2013-03-03 03:27:00,21.4,32.2,29.92,NW,309,2.0,4.0,23,0.00,,,0.00,0.0,meteohub,2013-03-03 08:27:00,
2013-03-03 03:32:00,21.2,32.2,29.92,NW,321,1.0,4.0,23,0.00,,,0.00,0.0,meteohub,2013-03-03 08:32:00,
2013-03-03 03:37:00,21.0,32.2,29.92,WNW,297,2.0,4.0,23,0.00,,,0.00,0.0,meteohub,2013-03-03 08:37:00,
2013-03-03 03:47:00,20.8,32.2,29.92,West,267,0.0,3.0,23,0.00,,,0.00,0.0,meteohub,2013-03-03 08:47:00,
2013-03-03 03:52:00,20.8,32.2,29.92,West,267,0.0,3.0,23,0.00,,,0.00,0.0,meteohub,2013-03-03 08:52:00,
2013-03-03 03:57:00,20.8,32.2,29.92,NNW,335,0.0,3.0,23,0.00,,,0.00,0.0,meteohub,2013-03-03 08:57:00,
2013-03-03 04:02:00,20.7,32.0,29.92,NW,325,2.0,3.0,23,0.00,,,0.00,0.0,meteohub,2013-03-03 09:02:00,
2013-03-03 04:07:00,20.7,31.1,29.92,NW,309,1.0,4.0,22,0.00,,,0.00,0.0,meteohub,2013-03-03 09:07:00,
2013-03-03 04:12:00,20.7,31.1,29.92,NNW,328,2.0,4.0,22,0.00,,,0.00,0.0,meteohub,2013-03-03 09:12:00,
2013-03-03 04:17:00,20.7,32.0,29.92,WNW,303,3.0,3.0,23,0.00,,,0.00,0.0,meteohub,2013-03-03 09:17:00,
2013-03-03 04:22:00,20.5,31.1,29.91,WNW,296,4.0,4.0,22,0.00,,,0.00,0.0,meteohub,2013-03-03 09:22:00,
2013-03-03 04:27:00,20.5,31.1,29.92,WNW,301,0.0,4.0,22,0.00,,,0.00,0.0,meteohub,2013-03-03 09:27:00,
2013-03-03 04:32:00,20.5,30.9,29.92,NW,304,1.0,5.0,22,0.00,,,0.00,0.0,meteohub,2013-03-03 09:32:00,
2013-03-03 04:37:00,20.5,31.1,29.92,WNW,289,3.0,5.0,22,0.00,,,0.00,0.0,meteohub,2013-03-03 09:37:00,
2013-03-03 04:42:00,20.3,31.1,29.92,NW,306,3.0,4.0,22,0.00,,,0.00,0.0,meteohub,2013-03-03 09:42:00,
2013-03-03 04:47:00,20.3,30.9,29.92,WNW,301,3.0,4.0,22,0.00,,,0.00,0.0,meteohub,2013-03-03 09:47:00,
2013-03-03 04:52:00,20.3,31.1,29.92,NNW,345,3.0,6.0,22,0.00,,,0.00,0.0,meteohub,2013-03-03 09:52:00,
2013-03-03 04:57:00,20.1,31.1,29.92,WNW,282,2.0,6.0,22,0.00,,,0.00,0.0,meteohub,2013-03-03 09:57:00,
2013-03-03 05:02:00,20.1,31.1,29.93,NW,325,4.0,6.0,22,0.00,,,0.00,0.0,meteohub,2013-03-03 10:02:00,
2013-03-03 05:07:00,20.1,31.1,29.93,WNW,298,0.0,6.0,22,0.00,,,0.00,0.0,meteohub,2013-03-03 10:07:00,
2013-03-03 05:12:00,20.1,31.1,29.93,WNW,288,1.0,6.0,22,0.00,,,0.00,0.0,meteohub,2013-03-03 10:12:00,
2013-03-03 05:17:00,20.1,31.1,29.93,WNW,299,0.0,6.0,22,0.00,,,0.00,0.0,meteohub,2013-03-03 10:17:00,
2013-03-03 05:22:00,19.9,31.1,29.93,WNW,299,2.0,4.0,22,0.00,,,0.00,0.0,meteohub,2013-03-03 10:22:00,
2013-03-03 05:32:00,19.9,30.9,29.93,North,0,1.0,4.0,22,0.00,,,0.00,0.0,meteohub,2013-03-03 10:32:00,
2013-03-03 05:37:00,19.9,31.1,29.93,WSW,245,4.0,4.0,22,0.00,,,0.00,0.0,meteohub,2013-03-03 10:37:00,
2013-03-03 05:42:00,19.9,31.1,29.93,North,0,1.0,7.0,22,0.00,,,0.00,0.0,meteohub,2013-03-03 10:42:00,
2013-03-03 05:47:00,19.8,30.9,29.93,NNW,328,7.0,8.0,22,0.00,,,0.00,0.0,meteohub,2013-03-03 10:47:00,
2013-03-03 05:57:00,19.8,30.9,29.93,NNW,332,3.0,14.0,22,0.00,,,0.00,0.0,meteohub,2013-03-03 10:57:00,
2013-03-03 06:02:00,19.8,30.9,29.93,WNW,301,0.0,8.0,22,0.00,,,0.00,0.0,meteohub,2013-03-03 11:02:00,
2013-03-03 06:07:00,19.9,30.9,29.94,North,355,2.0,6.0,22,0.00,,,0.00,0.0,meteohub,2013-03-03 11:07:00,
2013-03-03 06:12:00,19.9,30.9,29.94,NNW,344,3.0,7.0,22,0.00,,,0.00,0.0,meteohub,2013-03-03 11:12:00,
2013-03-03 06:17:00,19.9,30.9,29.94,WNW,290,2.0,7.0,22,0.00,,,0.00,0.0,meteohub,2013-03-03 11:17:00,
2013-03-03 06:22:00,19.9,30.9,29.94,NNW,336,5.0,9.0,22,0.00,,,0.00,0.0,meteohub,2013-03-03 11:22:00,
2013-03-03 06:27:00,19.9,30.9,29.94,NNW,329,5.0,10.0,22,0.00,,,0.00,0.0,meteohub,2013-03-03 11:27:00,
2013-03-03 06:37:00,19.9,30.9,29.94,North,355,1.0,11.0,22,0.00,,,0.00,0.0,meteohub,2013-03-03 11:37:00,
2013-03-03 06:42:00,19.9,30.9,29.94,NNE,24,4.0,8.0,22,0.00,,,0.00,0.0,meteohub,2013-03-03 11:42:00,
2013-03-03 06:47:00,19.8,30.9,29.94,NW,305,6.0,7.0,22,0.00,,,0.00,0.0,meteohub,2013-03-03 11:47:00,
2013-03-03 06:52:00,19.8,30.9,29.94,WNW,299,4.0,6.0,22,0.00,,,0.00,0.0,meteohub,2013-03-03 11:52:00,
2013-03-03 06:57:00,19.8,30.9,29.94,WNW,287,4.0,7.0,22,0.00,,,0.00,5.0,meteohub,2013-03-03 11:57:00,
2013-03-03 07:02:00,19.8,30.9,29.94,NW,315,9.0,9.0,22,0.00,,,0.00,7.0,meteohub,2013-03-03 12:02:00,
2013-03-03 07:07:00,19.6,30.9,29.94,NNE,19,3.0,10.0,22,0.00,,,0.00,12.0,meteohub,2013-03-03 12:07:00,
2013-03-03 07:12:00,19.6,30.9,29.94,WNW,296,2.0,10.0,22,0.00,,,0.00,21.0,meteohub,2013-03-03 12:12:00,
2013-03-03 07:17:00,19.6,30.9,29.94,WNW,299,3.0,10.0,22,0.00,,,0.00,30.0,meteohub,2013-03-03 12:17:00,
2013-03-03 07:22:00,19.6,30.9,29.94,NNW,336,6.0,6.0,22,0.00,,,0.00,42.0,meteohub,2013-03-03 12:22:00,
2013-03-03 07:27:00,19.6,30.9,29.94,NNW,337,2.0,6.0,22,0.00,,,0.00,42.0,meteohub,2013-03-03 12:27:00,
2013-03-03 07:32:00,19.6,30.9,29.95,WNW,291,5.0,6.0,22,0.00,,,0.00,51.0,meteohub,2013-03-03 12:32:00,
2013-03-03 07:37:00,19.6,30.9,29.95,NNW,342,0.0,7.0,22,0.00,,,0.00,54.0,meteohub,2013-03-03 12:37:00,
2013-03-03 07:42:00,19.6,31.1,29.95,NW,305,1.0,7.0,22,0.00,,,0.00,56.0,meteohub,2013-03-03 12:42:00,
2013-03-03 07:47:00,19.6,30.9,29.95,WNW,292,0.0,7.0,22,0.00,,,0.00,69.0,meteohub,2013-03-03 12:47:00,
2013-03-03 07:52:00,19.8,30.9,29.95,WSW,239,5.0,5.0,22,0.00,,,0.00,63.0,meteohub,2013-03-03 12:52:00,
2013-03-03 07:57:00,19.8,31.1,29.95,West,281,3.0,5.0,22,0.00,,,0.00,62.0,meteohub,2013-03-03 12:57:00,
2013-03-03 08:02:00,19.8,30.9,29.95,NW,318,1.0,5.0,22,0.00,,,0.00,90.0,meteohub,2013-03-03 13:02:00,
2013-03-03 08:12:00,19.9,30.9,29.96,WSW,247,3.0,5.0,22,0.00,,,0.00,118.0,meteohub,2013-03-03 13:12:00,
2013-03-03 08:17:00,19.9,30.9,29.96,WSW,256,3.0,5.0,22,0.00,,,0.00,142.0,meteohub,2013-03-03 13:17:00,
2013-03-03 08:22:00,20.1,30.9,29.96,West,263,2.0,7.0,22,0.00,,,0.00,156.0,meteohub,2013-03-03 13:22:00,
2013-03-03 08:27:00,20.5,31.1,29.96,WNW,292,3.0,7.0,22,0.00,,,0.00,139.0,meteohub,2013-03-03 13:27:00,
2013-03-03 08:32:00,20.5,30.9,29.96,WNW,284,1.0,7.0,22,0.00,,,0.00,144.0,meteohub,2013-03-03 13:32:00,
2013-03-03 08:37:00,20.7,31.1,29.96,NNW,331,2.0,4.0,22,0.00,,,0.00,204.0,meteohub,2013-03-03 13:37:00,
2013-03-03 08:47:00,20.7,31.1,29.96,WNW,287,4.0,7.0,22,0.00,,,0.00,232.0,meteohub,2013-03-03 13:47:00,
2013-03-03 08:52:00,20.8,31.1,29.96,WNW,302,0.0,7.0,22,0.00,,,0.00,162.0,meteohub,2013-03-03 13:52:00,
2013-03-03 08:57:00,21.0,31.1,29.97,West,265,1.0,6.0,22,0.00,,,0.00,197.0,meteohub,2013-03-03 13:57:00,
2013-03-03 09:02:00,21.2,31.1,29.97,West,263,6.0,10.0,22,0.00,,,0.00,172.0,meteohub,2013-03-03 14:02:00,
2013-03-03 09:07:00,21.4,31.1,29.97,NW,311,1.0,10.0,22,0.00,,,0.00,162.0,meteohub,2013-03-03 14:07:00,
2013-03-03 09:12:00,21.6,31.1,29.97,WNW,299,10.0,10.0,22,0.00,,,0.00,362.0,meteohub,2013-03-03 14:12:00,
2013-03-03 09:17:00,21.6,31.1,29.97,NW,309,5.0,10.0,22,0.00,,,0.00,232.0,meteohub,2013-03-03 14:17:00,
2013-03-03 09:22:00,21.6,31.1,29.97,WNW,302,3.0,10.0,22,0.00,,,0.00,257.0,meteohub,2013-03-03 14:22:00,
2013-03-03 09:27:00,21.7,31.1,29.97,NNW,333,3.0,10.0,22,0.00,,,0.00,257.0,meteohub,2013-03-03 14:27:00,
2013-03-03 09:32:00,22.1,31.1,29.97,WNW,296,4.0,9.0,22,0.00,,,0.00,471.0,meteohub,2013-03-03 14:32:00,
2013-03-03 09:37:00,22.5,31.1,29.97,WNW,283,8.0,9.0,22,0.00,,,0.00,295.0,meteohub,2013-03-03 14:37:00,
2013-03-03 09:42:00,21.9,31.1,29.97,WNW,284,4.0,9.0,22,0.00,,,0.00,306.0,meteohub,2013-03-03 14:42:00,
2013-03-03 09:47:00,22.5,31.1,29.97,NW,306,10.0,10.0,22,0.00,,,0.00,548.0,meteohub,2013-03-03 14:47:00,
2013-03-03 09:52:00,22.5,31.1,29.97,WNW,297,10.0,11.0,22,0.00,,,0.00,722.0,meteohub,2013-03-03 14:52:00,
2013-03-03 09:57:00,23.2,31.1,29.97,West,276,3.0,12.0,22,0.00,,,0.00,367.0,meteohub,2013-03-03 14:57:00,
2013-03-03 10:02:00,23.7,31.1,29.97,West,270,3.0,12.0,22,0.00,,,0.00,478.0,meteohub,2013-03-03 15:02:00,
2013-03-03 10:07:00,23.4,31.1,29.97,NW,311,0.0,12.0,22,0.00,,,0.00,772.0,meteohub,2013-03-03 15:07:00,
2013-03-03 10:12:00,23.4,31.1,29.97,WNW,284,1.0,10.0,22,0.00,,,0.00,287.0,meteohub,2013-03-03 15:12:00,
2013-03-03 10:17:00,23.4,31.1,29.97,WNW,300,5.0,10.0,22,0.00,,,0.00,420.0,meteohub,2013-03-03 15:17:00,
2013-03-03 10:22:00,23.7,31.1,29.96,West,268,4.0,11.0,22,0.00,,,0.00,780.0,meteohub,2013-03-03 15:22:00,
2013-03-03 10:27:00,23.7,31.1,29.96,West,275,5.0,11.0,22,0.00,,,0.00,304.0,meteohub,2013-03-03 15:27:00,
2013-03-03 10:32:00,24.1,31.1,29.96,WNW,284,6.0,11.0,22,0.00,,,0.00,819.0,meteohub,2013-03-03 15:32:00,
2013-03-03 10:37:00,23.5,31.1,29.97,West,270,4.0,11.0,22,0.00,,,0.00,366.0,meteohub,2013-03-03 15:37:00,
2013-03-03 10:42:00,23.5,31.1,29.97,NNW,342,1.0,11.0,22,0.00,,,0.00,454.0,meteohub,2013-03-03 15:42:00,
2013-03-03 10:47:00,24.6,31.1,29.97,NNW,336,4.0,11.0,22,0.00,,,0.00,357.0,meteohub,2013-03-03 15:47:00,
2013-03-03 10:52:00,24.3,31.1,29.97,NW,319,9.0,11.0,22,0.00,,,0.00,647.0,meteohub,2013-03-03 15:52:00,
2013-03-03 10:57:00,23.9,31.1,29.96,NNW,346,5.0,10.0,22,0.00,,,0.00,401.0,meteohub,2013-03-03 15:57:00,
2013-03-03 11:02:00,24.4,31.1,29.96,WNW,303,4.0,10.0,22,0.00,,,0.00,417.0,meteohub,2013-03-03 16:02:00,
2013-03-03 11:12:00,24.4,31.1,29.96,WNW,292,6.0,11.0,22,0.00,,,0.00,364.0,meteohub,2013-03-03 16:12:00,
2013-03-03 11:17:00,24.6,31.1,29.96,WNW,294,3.0,11.0,22,0.00,,,0.00,399.0,meteohub,2013-03-03 16:17:00,
2013-03-03 11:22:00,24.6,31.1,29.97,NNW,344,9.0,9.0,22,0.00,,,0.00,373.0,meteohub,2013-03-03 16:22:00,
2013-03-03 11:27:00,24.6,31.1,29.97,West,262,4.0,11.0,22,0.00,,,0.00,468.0,meteohub,2013-03-03 16:27:00,
2013-03-03 11:32:00,24.6,31.1,29.97,NNW,331,5.0,12.0,22,0.00,,,0.00,415.0,meteohub,2013-03-03 16:32:00,
2013-03-03 11:37:00,24.4,31.1,29.97,NNW,332,3.0,12.0,22,0.00,,,0.00,450.0,meteohub,2013-03-03 16:37:00,
2013-03-03 11:42:00,25.0,31.1,29.97,West,270,8.0,14.0,22,0.00,,,0.00,492.0,meteohub,2013-03-03 16:42:00,
2013-03-03 11:47:00,25.2,31.1,29.97,WNW,292,11.0,14.0,22,0.00,,,0.00,536.0,meteohub,2013-03-03 16:47:00,
2013-03-03 11:57:00,25.0,31.1,29.97,NNW,330,2.0,12.0,22,0.00,,,0.00,445.0,meteohub,2013-03-03 16:57:00,
2013-03-03 12:07:00,24.6,30.9,29.98,WNW,302,5.0,12.0,22,0.00,,,0.00,490.0,meteohub,2013-03-03 17:07:00,
2013-03-03 12:12:00,24.6,31.1,29.97,NW,318,6.0,12.0,22,0.00,,,0.00,510.0,meteohub,2013-03-03 17:12:00,
2013-03-03 12:17:00,24.8,31.1,29.97,WNW,290,6.0,12.0,22,0.00,,,0.00,411.0,meteohub,2013-03-03 17:17:00,
2013-03-03 12:22:00,24.6,31.1,29.97,NW,325,6.0,13.0,22,0.00,,,0.00,439.0,meteohub,2013-03-03 17:22:00,
2013-03-03 12:27:00,25.3,31.1,29.97,NW,306,3.0,13.0,22,0.00,,,0.00,1011.0,meteohub,2013-03-03 17:27:00,
2013-03-03 12:32:00,26.1,31.1,29.97,NW,315,4.0,15.0,22,0.00,,,0.00,819.0,meteohub,2013-03-03 17:32:00,
2013-03-03 12:37:00,26.2,31.1,29.97,West,262,5.0,15.0,22,0.01,,,0.01,809.0,meteohub,2013-03-03 17:37:00,
2013-03-03 12:42:00,26.2,31.1,29.97,WSW,256,4.0,15.0,22,0.01,,,0.01,838.0,meteohub,2013-03-03 17:42:00,
2013-03-03 12:47:00,27.1,31.1,29.97,WNW,283,5.0,14.0,22,0.01,,,0.01,896.0,meteohub,2013-03-03 17:47:00,
2013-03-03 12:52:00,27.3,31.1,29.97,NW,307,15.0,15.0,22,0.01,,,0.01,919.0,meteohub,2013-03-03 17:52:00,
2013-03-03 12:57:00,27.1,30.9,29.97,NW,306,8.0,15.0,22,0.01,,,0.01,969.0,meteohub,2013-03-03 17:57:00,
2013-03-03 13:07:00,26.8,31.1,29.97,NNW,333,0.0,15.0,22,0.01,,,0.01,483.0,meteohub,2013-03-03 18:07:00,
2013-03-03 13:12:00,27.0,31.1,29.97,WNW,294,8.0,14.0,22,0.01,,,0.01,566.0,meteohub,2013-03-03 18:12:00,
2013-03-03 13:17:00,27.0,31.1,29.96,West,259,8.0,14.0,22,0.01,,,0.01,429.0,meteohub,2013-03-03 18:17:00,
2013-03-03 13:22:00,27.0,30.9,29.96,NNW,329,4.0,13.0,22,0.01,,,0.01,469.0,meteohub,2013-03-03 18:22:00,
2013-03-03 13:27:00,26.8,31.1,29.96,WNW,302,7.0,17.0,22,0.01,,,0.01,497.0,meteohub,2013-03-03 18:27:00,
2013-03-03 13:32:00,27.1,31.1,29.96,West,277,7.0,17.0,22,0.00,,,0.01,497.0,meteohub,2013-03-03 18:32:00,
2013-03-03 13:37:00,27.3,31.1,29.96,NW,311,12.0,17.0,22,0.00,,,0.01,487.0,meteohub,2013-03-03 18:37:00,
2013-03-03 13:42:00,27.1,31.1,29.95,West,273,4.0,13.0,22,0.00,,,0.01,320.0,meteohub,2013-03-03 18:42:00,
2013-03-03 13:47:00,27.5,31.1,29.95,WNW,300,5.0,13.0,22,0.00,,,0.01,352.0,meteohub,2013-03-03 18:47:00,
2013-03-03 13:52:00,27.0,31.1,29.95,West,279,6.0,13.0,22,0.00,,,0.01,366.0,meteohub,2013-03-03 18:52:00,
2013-03-03 13:57:00,27.0,31.1,29.95,NNW,330,4.0,12.0,22,0.00,,,0.01,290.0,meteohub,2013-03-03 18:57:00,
2013-03-03 14:02:00,27.5,31.1,29.95,West,281,9.0,12.0,22,0.00,,,0.01,647.0,meteohub,2013-03-03 19:02:00,
2013-03-03 14:12:00,30.0,31.1,29.94,NW,307,4.0,13.0,22,0.00,,,0.01,802.0,meteohub,2013-03-03 19:12:00,
2013-03-03 14:22:00,28.6,31.1,29.95,WNW,302,5.0,12.0,22,0.00,,,0.01,366.0,meteohub,2013-03-03 19:22:00,
2013-03-03 14:27:00,28.2,30.9,29.95,West,277,7.0,10.0,22,0.00,,,0.01,628.0,meteohub,2013-03-03 19:27:00,
2013-03-03 14:32:00,28.6,30.9,29.95,West,269,7.0,10.0,22,0.00,,,0.01,921.0,meteohub,2013-03-03 19:32:00,
2013-03-03 14:37:00,29.5,31.1,29.95,WNW,292,4.0,15.0,22,0.00,,,0.01,819.0,meteohub,2013-03-03 19:37:00,
2013-03-03 14:42:00,29.1,31.1,29.95,NW,317,10.0,15.0,22,0.00,,,0.01,765.0,meteohub,2013-03-03 19:42:00,
2013-03-03 14:47:00,29.3,31.1,29.94,West,281,4.0,15.0,22,0.00,,,0.01,731.0,meteohub,2013-03-03 19:47:00,
2013-03-03 14:52:00,30.0,30.9,29.95,NW,306,4.0,14.0,22,0.00,,,0.01,715.0,meteohub,2013-03-03 19:52:00,
2013-03-03 14:57:00,29.5,31.1,29.94,NW,316,9.0,14.0,22,0.00,,,0.01,721.0,meteohub,2013-03-03 19:57:00,
2013-03-03 15:02:00,29.8,31.1,29.95,NW,304,13.0,14.0,22,0.00,,,0.01,754.0,meteohub,2013-03-03 20:02:00,
2013-03-03 15:07:00,29.7,31.1,29.95,WNW,297,4.0,14.0,22,0.00,,,0.01,738.0,meteohub,2013-03-03 20:07:00,
2013-03-03 15:12:00,30.4,31.1,29.95,WSW,253,12.0,13.0,22,0.00,,,0.01,708.0,meteohub,2013-03-03 20:12:00,
2013-03-03 15:17:00,30.0,31.1,29.95,West,268,7.0,14.0,22,0.00,,,0.01,675.0,meteohub,2013-03-03 20:17:00,
2013-03-03 15:22:00,30.0,31.1,29.95,North,355,3.0,14.0,22,0.00,,,0.01,693.0,meteohub,2013-03-03 20:22:00,
2013-03-03 15:27:00,29.8,29.8,29.96,West,262,3.0,14.0,21,0.00,,,0.01,680.0,meteohub,2013-03-03 20:27:00,
2013-03-03 15:32:00,29.5,31.1,29.95,WSW,251,7.0,14.0,22,0.00,,,0.01,664.0,meteohub,2013-03-03 20:32:00,
2013-03-03 15:37:00,29.1,30.9,29.95,NNW,338,10.0,18.0,22,0.00,,,0.01,617.0,meteohub,2013-03-03 20:37:00,
2013-03-03 15:42:00,29.1,31.1,29.95,North,355,1.0,18.0,22,0.00,,,0.01,571.0,meteohub,2013-03-03 20:42:00,
2013-03-03 15:47:00,29.5,31.1,29.95,WSW,248,4.0,18.0,22,0.00,,,0.01,552.0,meteohub,2013-03-03 20:47:00,
2013-03-03 15:52:00,29.3,29.7,29.95,NNW,327,6.0,14.0,21,0.00,,,0.01,534.0,meteohub,2013-03-03 20:52:00,
2013-03-03 15:57:00,29.1,30.9,29.96,NNW,344,12.0,14.0,22,0.00,,,0.01,519.0,meteohub,2013-03-03 20:57:00,
2013-03-03 16:02:00,28.9,31.1,29.96,NW,304,6.0,14.0,22,0.00,,,0.01,497.0,meteohub,2013-03-03 21:02:00,
2013-03-03 16:07:00,29.5,31.1,29.96,North,0,10.0,12.0,22,0.00,,,0.01,483.0,meteohub,2013-03-03 21:07:00,
2013-03-03 16:12:00,29.1,29.8,29.96,WSW,254,4.0,12.0,21,0.00,,,0.01,476.0,meteohub,2013-03-03 21:12:00,
2013-03-03 16:17:00,29.5,30.9,29.96,NNW,348,10.0,12.0,22,0.00,,,0.01,452.0,meteohub,2013-03-03 21:17:00,
2013-03-03 16:22:00,29.1,31.1,29.96,NE,55,4.0,11.0,22,0.00,,,0.01,432.0,meteohub,2013-03-03 21:22:00,
2013-03-03 16:32:00,29.3,29.8,29.96,WNW,296,5.0,11.0,21,0.00,,,0.01,401.0,meteohub,2013-03-03 21:32:00,
2013-03-03 16:37:00,29.3,30.9,29.97,NNW,339,5.0,12.0,22,0.00,,,0.01,388.0,meteohub,2013-03-03 21:37:00,
2013-03-03 16:47:00,28.8,31.1,29.96,WNW,287,6.0,12.0,22,0.00,,,0.01,341.0,meteohub,2013-03-03 21:47:00,
2013-03-03 16:52:00,28.4,30.9,29.96,WNW,288,8.0,11.0,22,0.00,,,0.01,325.0,meteohub,2013-03-03 21:52:00,
2013-03-03 16:57:00,28.0,30.9,29.96,NNW,331,3.0,15.0,22,0.00,,,0.01,304.0,meteohub,2013-03-03 21:57:00,
2013-03-03 17:02:00,27.9,31.1,29.96,NNW,345,4.0,16.0,22,0.00,,,0.01,283.0,meteohub,2013-03-03 22:02:00,
2013-03-03 17:07:00,28.0,31.1,29.97,WNW,296,6.0,16.0,22,0.00,,,0.01,260.0,meteohub,2013-03-03 22:07:00,
2013-03-03 17:12:00,28.0,30.9,29.97,WSW,248,6.0,13.0,22,0.00,,,0.01,237.0,meteohub,2013-03-03 22:12:00,
2013-03-03 17:17:00,27.9,31.1,29.97,WNW,283,12.0,13.0,22,0.00,,,0.01,214.0,meteohub,2013-03-03 22:17:00,
2013-03-03 17:22:00,27.3,31.1,29.97,NE,51,1.0,13.0,22,0.00,,,0.01,192.0,meteohub,2013-03-03 22:22:00,
2013-03-03 17:27:00,27.0,30.9,29.97,North,5,5.0,13.0,22,0.00,,,0.01,171.0,meteohub,2013-03-03 22:27:00,
2013-03-03 17:32:00,27.0,30.9,29.97,West,274,4.0,12.0,22,0.00,,,0.01,155.0,meteohub,2013-03-03 22:32:00,
2013-03-03 17:37:00,27.1,31.1,29.97,NW,311,3.0,11.0,22,0.00,,,0.01,134.0,meteohub,2013-03-03 22:37:00,
2013-03-03 17:42:00,27.0,31.1,29.98,WSW,257,1.0,11.0,22,0.00,,,0.01,114.0,meteohub,2013-03-03 22:42:00,
2013-03-03 17:47:00,26.6,30.9,29.98,West,268,4.0,12.0,22,0.00,,,0.01,93.0,meteohub,2013-03-03 22:47:00,
2013-03-03 17:52:00,26.4,31.1,29.98,NE,36,2.0,12.0,22,0.00,,,0.01,76.0,meteohub,2013-03-03 22:52:00,
2013-03-03 17:57:00,26.2,31.1,29.98,WNW,294,9.0,12.0,22,0.00,,,0.01,60.0,meteohub,2013-03-03 22:57:00,
2013-03-03 18:02:00,26.1,30.9,29.98,NNW,347,4.0,12.0,22,0.00,,,0.01,46.0,meteohub,2013-03-03 23:02:00,
2013-03-03 18:07:00,25.9,30.9,29.98,NNW,337,5.0,12.0,22,0.00,,,0.01,30.0,meteohub,2013-03-03 23:07:00,
2013-03-03 18:12:00,25.5,31.1,29.98,NW,313,1.0,12.0,22,0.00,,,0.01,21.0,meteohub,2013-03-03 23:12:00,
2013-03-03 18:17:00,25.3,31.1,29.99,NW,313,4.0,10.0,22,0.00,,,0.01,16.0,meteohub,2013-03-03 23:17:00,
2013-03-03 18:22:00,25.2,30.9,29.99,WNW,302,4.0,15.0,22,0.00,,,0.01,12.0,meteohub,2013-03-03 23:22:00,
2013-03-03 18:27:00,25.0,31.1,29.99,West,281,8.0,15.0,22,0.00,,,0.01,9.0,meteohub,2013-03-03 23:27:00,
2013-03-03 18:32:00,24.6,31.1,29.99,West,277,3.0,15.0,22,0.00,,,0.01,5.0,meteohub,2013-03-03 23:32:00,
2013-03-03 18:37:00,24.4,30.9,29.99,WNW,302,8.0,12.0,22,0.00,,,0.01,0.0,meteohub,2013-03-03 23:37:00,
2013-03-03 18:42:00,24.3,30.9,29.99,SW,229,7.0,13.0,22,0.00,,,0.01,0.0,meteohub,2013-03-03 23:42:00,
2013-03-03 18:47:00,24.3,31.1,29.99,WNW,293,5.0,13.0,22,0.00,,,0.01,0.0,meteohub,2013-03-03 23:47:00,
2013-03-03 18:52:00,24.1,30.9,30.00,NNW,330,14.0,14.0,22,0.00,,,0.01,0.0,meteohub,2013-03-03 23:52:00,
2013-03-03 18:57:00,23.9,30.9,30.00,NW,314,3.0,14.0,22,0.00,,,0.01,0.0,meteohub,2013-03-03 23:57:00,
2013-03-03 19:02:00,23.7,31.1,30.00,WNW,291,3.0,14.0,22,0.00,,,0.01,0.0,meteohub,2013-03-04 00:02:00,
2013-03-03 19:07:00,23.5,31.1,30.00,NW,325,5.0,14.0,22,0.00,,,0.01,0.0,meteohub,2013-03-04 00:07:00,
2013-03-03 19:12:00,23.5,30.9,30.01,West,278,5.0,14.0,22,0.00,,,0.01,0.0,meteohub,2013-03-04 00:12:00,
2013-03-03 19:17:00,23.5,31.1,30.01,NNW,344,3.0,14.0,22,0.00,,,0.01,0.0,meteohub,2013-03-04 00:17:00,
2013-03-03 19:22:00,23.5,31.1,30.01,WNW,290,4.0,13.0,22,0.00,,,0.01,0.0,meteohub,2013-03-04 00:22:00,
2013-03-03 19:27:00,23.5,31.1,30.01,NW,315,3.0,11.0,22,0.00,,,0.01,0.0,meteohub,2013-03-04 00:27:00,
2013-03-03 19:32:00,23.5,30.9,30.01,West,259,5.0,17.0,22,0.00,,,0.01,0.0,meteohub,2013-03-04 00:32:00,
2013-03-03 19:37:00,23.4,31.1,30.01,West,265,11.0,17.0,22,0.00,,,0.01,0.0,meteohub,2013-03-04 00:37:00,
2013-03-03 19:42:00,23.4,31.1,30.02,WNW,288,10.0,17.0,22,0.00,,,0.01,0.0,meteohub,2013-03-04 00:42:00,
2013-03-03 19:47:00,23.4,30.9,30.02,WNW,290,10.0,14.0,22,0.00,,,0.01,0.0,meteohub,2013-03-04 00:47:00,
2013-03-03 19:52:00,23.4,30.9,30.02,NNW,338,4.0,14.0,22,0.00,,,0.01,0.0,meteohub,2013-03-04 00:52:00,
2013-03-03 19:57:00,23.2,30.9,30.02,WNW,299,7.0,12.0,22,0.00,,,0.01,0.0,meteohub,2013-03-04 00:57:00,
2013-03-03 20:02:00,23.2,30.9,30.02,NNW,333,3.0,12.0,22,0.00,,,0.01,0.0,meteohub,2013-03-04 01:02:00,
2013-03-03 20:07:00,23.2,30.9,30.02,ENE,61,0.0,10.0,22,0.00,,,0.01,0.0,meteohub,2013-03-04 01:07:00,
2013-03-03 20:12:00,23.2,30.9,30.02,South,182,1.0,10.0,22,0.00,,,0.01,0.0,meteohub,2013-03-04 01:12:00,
2013-03-03 20:17:00,23.2,30.9,30.02,ESE,109,0.0,4.0,22,0.00,,,0.01,0.0,meteohub,2013-03-04 01:17:00,
2013-03-03 20:22:00,23.2,30.9,30.03,SSW,211,0.0,3.0,22,0.00,,,0.01,0.0,meteohub,2013-03-04 01:22:00,
2013-03-03 20:27:00,23.2,31.1,30.02,SSE,159,5.0,5.0,22,0.00,,,0.01,0.0,meteohub,2013-03-04 01:27:00,
2013-03-03 20:32:00,23.4,30.9,30.03,ENE,59,3.0,8.0,22,0.00,,,0.01,0.0,meteohub,2013-03-04 01:32:00,
2013-03-03 20:42:00,23.4,31.1,30.03,WNW,284,8.0,12.0,22,0.00,,,0.01,0.0,meteohub,2013-03-04 01:42:00,
2013-03-03 20:47:00,23.4,30.9,30.03,SW,232,0.0,13.0,22,0.00,,,0.01,0.0,meteohub,2013-03-04 01:47:00,
2013-03-03 20:52:00,23.4,30.9,30.03,NNW,346,4.0,18.0,22,0.00,,,0.01,0.0,meteohub,2013-03-04 01:52:00,
2013-03-03 20:57:00,23.2,31.1,30.04,WNW,285,2.0,18.0,22,0.00,,,0.01,0.0,meteohub,2013-03-04 01:57:00,
2013-03-03 21:02:00,23.2,31.1,30.04,West,263,1.0,10.0,22,0.00,,,0.01,0.0,meteohub,2013-03-04 02:02:00,
2013-03-03 21:07:00,23.0,30.9,30.04,NW,323,0.0,9.0,22,0.00,,,0.01,0.0,meteohub,2013-03-04 02:07:00,
2013-03-03 21:12:00,22.8,31.1,30.04,WSW,252,2.0,9.0,22,0.00,,,0.01,0.0,meteohub,2013-03-04 02:12:00,
2013-03-03 21:17:00,22.8,31.1,30.04,WNW,282,5.0,9.0,22,0.00,,,0.01,0.0,meteohub,2013-03-04 02:17:00,
2013-03-03 21:22:00,22.6,30.9,30.04,ENE,59,11.0,13.0,22,0.00,,,0.01,0.0,meteohub,2013-03-04 02:22:00,
2013-03-03 21:27:00,22.6,30.9,30.04,WNW,288,7.0,17.0,22,0.00,,,0.01,0.0,meteohub,2013-03-04 02:27:00,
2013-03-03 21:32:00,22.6,30.9,30.04,WNW,283,5.0,17.0,22,0.00,,,0.01,0.0,meteohub,2013-03-04 02:32:00,
2013-03-03 21:37:00,22.6,30.9,30.04,NNW,340,3.0,17.0,22,0.00,,,0.01,0.0,meteohub,2013-03-04 02:37:00,
2013-03-03 21:42:00,22.5,30.9,30.04,NNW,333,4.0,14.0,22,0.00,,,0.01,0.0,meteohub,2013-03-04 02:42:00,
2013-03-03 21:47:00,22.5,30.9,30.04,WNW,282,4.0,14.0,22,0.00,,,0.01,0.0,meteohub,2013-03-04 02:47:00,
2013-03-03 21:52:00,22.5,29.7,30.04,NW,316,2.0,12.0,21,0.00,,,0.01,0.0,meteohub,2013-03-04 02:52:00,
2013-03-03 21:57:00,22.5,29.7,30.04,NW,324,3.0,13.0,21,0.00,,,0.01,0.0,meteohub,2013-03-04 02:57:00,
2013-03-03 22:02:00,22.5,29.7,30.04,West,269,6.0,13.0,21,0.00,,,0.01,0.0,meteohub,2013-03-04 03:02:00,
2013-03-03 22:07:00,22.5,29.7,30.04,NW,312,3.0,12.0,21,0.00,,,0.01,0.0,meteohub,2013-03-04 03:07:00,
2013-03-03 22:12:00,22.3,30.9,30.04,West,278,4.0,12.0,22,0.00,,,0.01,0.0,meteohub,2013-03-04 03:12:00,
2013-03-03 22:17:00,22.3,29.8,30.04,NW,305,11.0,12.0,21,0.00,,,0.01,0.0,meteohub,2013-03-04 03:17:00,
2013-03-03 22:22:00,22.3,29.7,30.04,NW,325,6.0,12.0,21,0.00,,,0.01,0.0,meteohub,2013-03-04 03:22:00,
2013-03-03 22:27:00,22.3,29.7,30.03,NW,322,1.0,12.0,21,0.00,,,0.01,0.0,meteohub,2013-03-04 03:27:00,
2013-03-03 22:37:00,22.3,29.7,30.04,WNW,300,5.0,12.0,21,0.00,,,0.01,0.0,meteohub,2013-03-04 03:37:00,
2013-03-03 22:42:00,22.3,29.7,30.04,WNW,296,4.0,12.0,21,0.00,,,0.01,0.0,meteohub,2013-03-04 03:42:00,
2013-03-03 22:47:00,22.3,29.7,30.03,NW,312,6.0,12.0,21,0.00,,,0.01,0.0,meteohub,2013-03-04 03:47:00,
2013-03-03 22:57:00,21.9,29.7,30.03,WNW,300,5.0,10.0,21,0.00,,,0.01,0.0,meteohub,2013-03-04 03:57:00,
2013-03-03 23:02:00,21.9,29.7,30.03,West,277,8.0,10.0,21,0.00,,,0.01,0.0,meteohub,2013-03-04 04:02:00,
2013-03-03 23:07:00,21.9,29.7,30.03,WSW,255,3.0,10.0,21,0.00,,,0.01,0.0,meteohub,2013-03-04 04:07:00,
2013-03-03 23:12:00,21.9,29.7,30.03,SW,234,5.0,11.0,21,0.00,,,0.01,0.0,meteohub,2013-03-04 04:12:00,
2013-03-03 23:17:00,21.9,29.7,30.03,WNW,300,6.0,11.0,21,0.00,,,0.01,0.0,meteohub,2013-03-04 04:17:00,
2013-03-03 23:22:00,21.9,29.7,30.03,WNW,292,7.0,11.0,21,0.00,,,0.01,0.0,meteohub,2013-03-04 04:22:00,
2013-03-03 23:27:00,21.9,29.7,30.03,West,275,7.0,10.0,21,0.00,,,0.01,0.0,meteohub,2013-03-04 04:27:00,
2013-03-03 23:32:00,21.9,29.7,30.03,WSW,248,10.0,11.0,21,0.00,,,0.01,0.0,meteohub,2013-03-04 04:32:00,
2013-03-03 23:37:00,22.1,29.7,30.03,West,271,6.0,13.0,21,0.00,,,0.01,0.0,meteohub,2013-03-04 04:37:00,
2013-03-03 23:42:00,22.1,29.7,30.03,West,277,9.0,13.0,21,0.00,,,0.01,0.0,meteohub,2013-03-04 04:42:00,
2013-03-03 23:47:00,22.1,29.7,30.03,West,260,7.0,13.0,21,0.00,,,0.01,0.0,meteohub,2013-03-04 04:47:00,
2013-03-03 23:52:00,22.1,29.7,30.03,West,280,6.0,14.0,21,0.00,,,0.01,0.0,meteohub,2013-03-04 04:52:00,
2013-03-03 23:57:00,22.1,29.7,30.02,WNW,287,6.0,14.0,21,0.00,,,0.01,0.0,meteohub,2013-03-04 04:57:00,